www.pogodaiklimat.ru

Погода и климат >> Архив погоды >> Таиланд >> Ко Сичан


ПОГОДА на Ко Сичан

  • Прогноз погоды на Ко Сичан
  • Монитор погоды на Ко Сичан

АРХИВ ПОГОДЫ на Ко Сичан

Время (UTC), дата Ветер
(напр.,м/с)
 
Видим.   Явления Облачность Т
(С)
Тd
(С)
f
(%)
Тe
(С)
Тes
(С)
Комфортность P
(гПа)
Po
(гПа)
Тmin
(С)
Tmax
(С)
R
(мм)
R24
(мм)
S
(см)
06 9.09 З 6 10 км 8/3 600 м
[Sc Ac As Cs]
+31.5 +24.4 66 +44 +48 опасность
перегрева
1008.2 1005.1
09 9.09 штиль 0 10 км 8/3 600 м
[Sc Ac As Cs]
+29.5 +24.5 75 +42 +46 опасность
перегрева
1006.9 1003.8
12 9.09 штиль 0 10 км 9/3 600 м
[Sc Ac As Cs]
+28.3 +25.8 86 +42 +42 опасность
перегрева
1007.2 1004.1 +31.5
15 9.09 штиль 0 10 км 9/3 600 м
[Sc Ac As Cs]
+28.5 +25.7 85 +42 +42 опасность
перегрева
1009.0 1005.9
18 9.09 штиль 0 10 км 9/3 600 м
[Sc Ac As Cs]
+28.3 +25.0 82 +41 +41 опасность
перегрева
1008.3 1005.2
21 9.09 штиль 0 10 км 8/3 600 м
[Sc Ac As Cs]
+28.2 +24.3 79 +39 +39 очень
душно
1007.9 1004.8
00 10.09 штиль 0 10 км 8/3 600 м
[Sc Ac As Cs]
+28.0 +24.4 81 +39 +40 очень
душно
1009.6 1006.4 +26.0
03 10.09 СЗ 5 10 км 8/3 600 м
[Cu hum Ac As Cs]
+30.0 +23.6 69 +41 +45 опасность
перегрева
1010.7 1007.6
06 10.09 СЗ 3 10 км 8/3 600 м
[Cu hum Ac As Cs]
+31.3 +24.1 66 +43 +51 опасность
перегрева
1009.1 1006.0
09 10.09 СЗ 4 10 км 8/3 600 м
[Sc Ac As Cs]
+30.0 +25.0 75 +43 +45 опасность
перегрева
1007.5 1004.4
12 10.09 штиль 0 10 км 8/3 600 м
[Sc Ac As Cs]
+28.5 +24.9 81 +41 +41 опасность
перегрева
1009.0 1005.9 +32.0
15 10.09 штиль 0 10 км 9/3 600 м
[Sc Ac As Cs]
+28.5 +26.0 86 +43 +43 опасность
перегрева
1011.7 1008.5
18 10.09 штиль 0 10 км 9/3 600 м
[Sc Ac As Cs]
+28.3 +24.7 81 +40 +40 очень
душно
1011.0 1007.8
21 10.09 штиль 0 10 км 9/3 600 м
[Sc Ac As Cs]
+28.3 +24.3 79 +40 +40 очень
душно
1010.6 1007.4
00 11.09 штиль 0 10 км 8/3 600 м
[Cu hum Ac As Cs]
+28.0 +23.6 77 +38 +39 очень
душно
1012.3 1009.2 +27.0
03 11.09 З 3 10 км 8/3 600 м
[Cu hum Ac As Cs]
+30.0 +24.3 72 +42 +48 опасность
перегрева
1013.8 1010.7
06 11.09 штиль 0 10 км 8/3 600 м
[Cu hum Ac lent Cs]
+31.0 +23.0 62 +41 +54 опасность
перегрева
1011.7 1008.6
09 11.09 СЗ 3 10 км 6/3 600 м
[Cu hum Cs]
+32.0 +23.3 60 +43 +46 опасность
перегрева
1010.3 1007.2
12 11.09 штиль 0 <100 м 6/3 600 м
[Sc Cs]
+29.5 +23.4 70 +40 +40 очень
душно
1010.7 1007.6 +32.5
15 11.09 З 3 10 км 8/3 600 м
[Sc Cs]
+29.3 +24.1 74 +41 +41 опасность
перегрева
1013.6 1010.5
18 11.09 штиль 0 10 км 8/3 600 м
[Sc Cs]
+28.6 +24.6 79 +41 +41 опасность
перегрева
1012.6 1009.5
21 11.09 штиль 0 10 км 8/3 600 м
[Sc Cs]
+28.3 +24.7 81 +40 +40 очень
душно
1011.7 1008.6
00 12.09 штиль 0 10 км 8/3 600 м
[Sc Ac As Cs]
+27.0 +24.1 84 +37 +38 очень
душно
1012.3 1009.1 +25.5
03 12.09 штиль 0 10 км 5/1 600 м
[Cu med, cong Ac lent Cs]
+30.1 +24.2 71 +42 +56 опасность
перегрева
1013.6 1010.5
06 12.09 З 3 10 км 5/1 600 м
[Cu med, cong Ac lent Cs]
+31.4 +23.3 62 +42 +54 опасность
перегрева
1011.5 1008.4
09 12.09 ЮЗ 3 10 км 5/1 600 м
[Cu med, cong Ac lent Cs]
+30.5 +22.4 62 +40 +44 очень
душно
1009.1 1006.0
12 12.09 З 3 10 км 8/3 600 м
[Cu med, cong Ac lent Cs]
+29.5 +23.7 71 +40 +40 очень
душно
1009.4 1006.3 +32.2
15 12.09 штиль 0 10 км 8/3 600 м
[Cu med, cong Ac lent Cs]
+28.7 +24.1 76 +40 +40 очень
душно
1011.4 1008.2
18 12.09 штиль 0 10 км 8/3 600 м
[Cu med, cong Ac lent Cs]
+29.2 +23.1 70 +39 +39 очень
душно
1010.6 1007.4
21 12.09 штиль 0 10 км 8/3 600 м
[Cu med, cong Ac lent Cs]
+28.4 +23.5 75 +39 +39 очень
душно
1008.9 1005.8
00 13.09 З 3 10 км 8/4 600 м
[Sc Ac As Cs]
+28.5 +22.6 70 +37 +38 очень
душно
1010.3 1007.2 +27.9
03 13.09 СЗ 5 10 км 8/3 600 м
[Cu med, cong Ac lent Cs]
+30.0 +23.2 67 +40 +44 очень
душно
1011.0 1007.8
06 13.09 З 3 10 км 8/4 600 м
[Sc Ac As Cs]
+31.0 +24.1 67 +43 +50 опасность
перегрева
1009.1 1006.0
09 13.09 З 5 10 км 8/4 600 м
[Sc Ac As Cs]
+30.7 +24.3 69 +43 +44 опасность
перегрева
1006.4 1003.3
12 13.09 З 3 10 км 8/4 600 м
[Sc Ac As Cs]
+29.2 +24.6 76 +41 +41 опасность
перегрева
1007.4 1004.3 +32.0
15 13.09 штиль 0 10 км 8/4 600 м
[Sc Ac As Cs]
+29.0 +25.5 81 +43 +43 опасность
перегрева
1009.2 1006.1
18 13.09 З 3 10 км 8/4 600 м
[Sc Ac As Cs]
+28.5 +22.6 70 +37 +37 очень
душно
1007.4 1004.3
21 13.09 штиль 0 10 км 8/4 600 м
[Sc Ac As Cs]
+27.6 +25.3 87 +40 +40 очень
душно
1006.7 1003.6
00 14.09 Ю 3 10 км 9/5 600 м
[Sc Ac As Cs]
+28.1 +23.6 77 +39 +39 очень
душно
1007.7 1004.6 +27.0
03 14.09 З 3 10 км 8/4 600 м
[Sc Ac As Cs]
+29.7 +23.9 71 +41 +46 опасность
перегрева
1009.0 1005.9
06 14.09 штиль 0 10 км в посл. час дождь 9/5 600 м
[Sc Ac As Cs]
+26.5 +25.4 94 +39 +47 очень
душно
1006.7 1003.6 26
09 14.09 штиль 0 10 км 8/4 600 м
[Sc Ac As Cs]
+29.0 +24.7 78 +41 +45 опасность
перегрева
1005.3 1002.2
12 14.09 З 3 10 км 9/5 600 м
[Sc Ac As Cs]
+28.2 +25.1 83 +41 +41 опасность
перегрева
1006.9 1003.7 +30.6
15 14.09 штиль 0 10 км 9/5 600 м
[Sc Ac As Cs]
+27.0 +25.6 92 +40 +40 очень
душно
1019.0 1015.8
18 14.09 штиль 0 10 км 9/5 600 м
[Sc Ac As Cs]
+26.8 +25.7 94 +40 +40 очень
душно
1007.3 1004.2
21 14.09 штиль 0 10 км слаб. дождь 9/5 600 м
[Sc Ac As Cs]
+26.0 +25.3 96 +38 +38 очень
душно
1006.6 1003.4 20
00 15.09 штиль 0 10 км {дождь} 9/5 600 м
[Sc Ac As Cs]
+26.1 +24.9 93 +37 +37 очень
душно
1007.8 1004.6 +24.5 15
03 15.09 СЗ 3 10 км 8/3 600 м
[Cu hum Ac As Cs]
+30.5 +26.3 78 +46 +52 опасность
перегрева
1008.5 1005.3
06 15.09 З 3 10 км 6/3 600 м
[Cu hum Cs]
+30.0 +24.3 72 +42 +53 опасность
перегрева
1005.9 1002.8
09 15.09 штиль 0 10 км {гроза} 8/3 600 м
[Sc Ac As Cs]
+28.5 +25.1 82 +41 +45 опасность
перегрева
1004.8 1001.6
12 15.09 СЗ 4 10 км {гроза} 8/3 600 м
[Sc Ac As Cs]
+28.0 +24.8 83 +40 +40 очень
душно
1005.5 1002.3 +31.5
15 15.09 штиль 0 10 км 8/3 600 м
[Sc Ac As Cs]
+28.0 +25.4 86 +41 +41 опасность
перегрева
1007.7 1004.5
18 15.09 штиль 0 10 км 8/3 600 м
[Sc Ac As Cs]
+27.8 +25.2 86 +40 +40 очень
душно
1006.8 1003.7
21 15.09 штиль 0 10 км 8/3 600 м
[Sc Ac As Cs]
+27.5 +25.4 88 +40 +40 очень
душно
1005.8 1002.7
00 16.09 штиль 0 10 км 8/3 600 м
[Sc Ac lent Cs]
+27.0 +24.8 88 +39 +39 очень
душно
1007.5 1004.3 +25.5
03 16.09 СЗ 3 10 км 8/3 600 м
[Sc Ac lent Cs]
+30.8 +24.7 70 +44 +49 опасность
перегрева
1008.6 1005.5

 

Местоположение метеостанции Ко Сичан (Таиланд): широта 13.17 долгота 100.80 высота над уровнем моря 26 м.

В архиве по умолчанию представлена погода на Ко Сичан за последнюю неделю. Архивные данные за месяц целиком и за предыдущие месяцы, начиная с января 2011 года, Вы можете получить, выбрав интересующий диапазон дат из раскрывающегося списка и нажав кнопку "Ввод!".


*Определитесь, кто Вы:
робот инопланетянин человек

Внимание! Время в таблицах - всемирное. Для получения местного времени необходимо прибавить поправку, которая равна 7 ч.

Смотрите также архив погоды в соседних городах и на ближайших метеорологических станциях:

Погода в Паттайе (Таиланд) (29 км)
Погода в Чонбури (Таиланд) (30 км)
Погода в Ратбури (Таиланд) (30 км)
Погода в Бангкок Пилот (Таиланд) (32 км)
Погода в Самутрудкан Агромете (Таиланд) (39 км)
Погода в Аэропорту Суварнабхуми (Таиланд) (57 км)
Погода в Саттахипе (Таиланд) (58 км)
Погода в Бангна Агромете (Таиланд) (59 км)
Погода в Хуайпонг Агромете (Таиланд) (61 км)
Погода в Бангкоке 2 (Таиланд) (64 км)

Пояснения к столбцам:

Ветер - указаны скорость ветра в м/с - средняя за 10 мин, порывы в срок и между сроками (в фигурных скобках) и направление, откуда дует ветер: С - северный, СВ - северо-восточный, В - восточный, ЮВ - юго-восточный, Ю - южный, ЮЗ - юго-западный, З - западный, СЗ - северо-западный.
Видимость - горизонтальная дальность видимости в метрах или километрах. При видимости от 1 до 10 км при отсутствии осадков обычно наблюдается дымка, при ухудшении видимости до 1 км и менее - туман. В сухую погоду видимость может ухудшаться дымом, пылью или мглою.
Явления - указаны атмосферные явления, наблюдавшиеся в срок или в последний час перед сроком; фигурными скобками обозначены явления, наблюдавшиеся между сроками (за 1-3 часа до срока); квадратными скобками обозначены град или гололедные отложения с указанием их диаметра в мм.
Облачность - указаны через наклонную черту общая и нижняя облачность в баллах и высота нижней границы облаков в метрах; квадратными скобками обозначены формы облаков: Ci - перистые, Cs - перисто-слоистые, Cc - перисто-кучевые, Ac - высококучевые, As - высокослоистые, Sc - слоисто-кучевые, Ns - слоисто-дождевые, Cu - кучевые, Cb - кучево-дождевые. Подробнее классификацию облаков см. в Атласе облаков (PDF).
T - Температура воздуха - температура, измеренная на высоте 2 м над землей.
Td - Температура точки росы - температура, при понижении до которой содержащийся в воздухе водяной пар достигнет насыщения.
f - Относительная влажность воздуха - влажноcть воздуха, измеренная на высоте 2 м над землей.
Te - Эффективная температура - температура, которую ощущает одетый по сезону человек в тени. Характеристика душности погоды. При расчете учитывается влияние влажности воздуха и скорости ветра на теплоощущения человека.
Tes - Эффективная температура на солнце - температура, которую ощущает человек, с поправкой на солнечный нагрев. Характеристика знойности погоды. Зависит от высоты солнца над горизонтом, облачности и скорости ветра. Ночью, в пасмурную погоду, а также при ветре 12 м/с и более поправка равна нулю.
P - Атмосферное давление - приведенное к уровню моря атмосферное давление.
Po - Атмосферное давление - измеренное на уровне метеостанции атмосферное давление.
Tmin - Минимальная температура - минимум температуры воздуха на высоте 2 м над землей.
Tmax - Максимальная температура - максимум температуры воздуха на высоте 2 м над землей.
R - Количество осадков - Количество выпавших осадков за период времени, мм. При наведении курсора мыши на число - период времени, за который выпало указанное количество осадков.
R24 - Количество осадков - Количество выпавших осадков за 24 часа, мм.
S - Снежный покров - Высота снежного покрова, см. При наведении курсора мыши на число - состояние снежного покрова и степень покрытия местности в баллах.